カタログに戻る

STARLINK-30907

運用中通信VLEO
NORAD 58352·PAYLOAD·🇺🇸 United States

打ち上げ Nov 18, 2023 から Cape Canaveral Space Force Station

Loading…

次のパス (今後24時間)

TLE

最新Source: CelesTrak SupGP

元期: Sep 15, 2026, 03:07 UTC

1 58352C 23177B   26258.13034722  .00038962  00000+0  14110-2 0  2582
2 58352  43.0035   0.4995 0001568 268.1324  58.1206 15.27563281    16

AllMySatでSTARLINK-30907をリアルタイム追跡

Download on the App Store